MXD8692 WMKK-VOML

Flight info

Callsign MXD8692
Flight time 3h 47m
Altitude 34000
Route AGOSA R467 GOBAS G582 PUGER P574 ELSAR P574 MMV W117 BIA T5 MML
Aircraft B738/M-SDE2E3FGHIRWXY/LB1

Departure

Time 2026-05-07 11:53
Airport Kuala Lumpur International Airport (WMKK)

Arrival

Time 2026-05-07 15:40
Airport Mangaluru International Airport (VOML)
Time Latitude Longitude Altitude Speed Heading
2026-05-07 11:24 2.74727 101.71490 72 ft 0 kts 236°
2026-05-07 11:42 2.74731 101.71497 72 ft 4 kts 236°
2026-05-07 11:42 2.74746 101.71519 64 ft 4 kts 236°
2026-05-07 11:43 2.74764 101.71537 62 ft 4 kts 199°
2026-05-07 11:43 2.74788 101.71537 68 ft 4 kts 153°
2026-05-07 11:43 2.74799 101.71531 63 ft 1 kts 146°
2026-05-07 11:47 2.74790 101.71536 67 ft 3 kts 146°
2026-05-07 11:47 2.74770 101.71552 64 ft 4 kts 134°
2026-05-07 11:47 2.74772 101.71578 70 ft 4 kts 60°
2026-05-07 11:47 2.74789 101.71603 72 ft 4 kts 54°
2026-05-07 11:48 2.74806 101.71628 65 ft 5 kts 56°
2026-05-07 11:48 2.74832 101.71667 72 ft 9 kts 57°
2026-05-07 11:48 2.74874 101.71729 68 ft 11 kts 56°
2026-05-07 11:48 2.74918 101.71794 66 ft 11 kts 56°
2026-05-07 11:49 2.74956 101.71859 74 ft 11 kts 72°
2026-05-07 11:49 2.74924 101.71919 73 ft 10 kts 143°
2026-05-07 11:49 2.74864 101.71959 71 ft 10 kts 147°
2026-05-07 11:49 2.74806 101.71997 68 ft 10 kts 147°
2026-05-07 11:50 2.74759 101.72041 75 ft 10 kts 108°
2026-05-07 11:50 2.74775 101.72101 74 ft 7 kts 56°
2026-05-07 11:50 2.74803 101.72143 73 ft 7 kts 56°
2026-05-07 11:50 2.74837 101.72178 77 ft 7 kts 30°
2026-05-07 11:51 2.74883 101.72175 69 ft 7 kts 332°
2026-05-07 11:51 2.74903 101.72163 77 ft 0 kts 326°
2026-05-07 11:51 2.74918 101.72152 77 ft 10 kts 326°
2026-05-07 11:52 2.75170 101.71984 75 ft 78 kts 326°
2026-05-07 11:52 2.75801 101.71560 70 ft 138 kts 326°
2026-05-07 11:52 2.76749 101.70924 86 ft 187 kts 327°
2026-05-07 11:52 2.77885 101.70191 568 ft 200 kts 328°
2026-05-07 11:53 2.79052 101.69449 1295 ft 205 kts 327°
2026-05-07 11:53 2.80266 101.68597 1691 ft 223 kts 313°
2026-05-07 11:53 2.81029 101.67199 1841 ft 240 kts 291°
2026-05-07 11:53 2.81737 101.65598 1997 ft 261 kts 294°
2026-05-07 11:54 2.82543 101.63940 2327 ft 273 kts 296°
2026-05-07 11:54 2.83426 101.62224 2970 ft 275 kts 297°
2026-05-07 11:54 2.84317 101.60547 3611 ft 277 kts 298°
2026-05-07 11:54 2.85239 101.58836 4242 ft 281 kts 298°
2026-05-07 11:55 2.86174 101.57112 4864 ft 283 kts 299°
2026-05-07 11:55 2.87114 101.55369 5507 ft 285 kts 297°
2026-05-07 11:55 2.87945 101.53566 6166 ft 286 kts 293°
2026-05-07 11:55 2.88717 101.51726 6771 ft 287 kts 292°
2026-05-07 11:56 2.89481 101.49867 7332 ft 291 kts 292°
2026-05-07 11:56 2.90245 101.48009 7849 ft 294 kts 292°
2026-05-07 11:56 2.91030 101.46108 8452 ft 295 kts 293°
2026-05-07 11:56 2.91820 101.44201 9006 ft 299 kts 293°
2026-05-07 11:57 2.92626 101.42265 9511 ft 304 kts 293°
2026-05-07 11:57 2.93445 101.40304 10069 ft 305 kts 293°
2026-05-07 11:57 2.94274 101.38323 10384 ft 317 kts 293°
2026-05-07 11:57 2.95152 101.36226 10508 ft 335 kts 293°
2026-05-07 11:58 2.96077 101.34020 10634 ft 352 kts 293°
2026-05-07 11:58 2.97047 101.31708 10752 ft 367 kts 293°
2026-05-07 11:58 2.98039 101.29344 11030 ft 376 kts 293°
2026-05-07 11:58 2.99057 101.26918 11487 ft 379 kts 293°
2026-05-07 11:59 3.00078 101.24482 11971 ft 381 kts 293°
2026-05-07 11:59 3.01106 101.22030 12434 ft 384 kts 293°
2026-05-07 11:59 3.02146 101.19552 12887 ft 388 kts 293°
2026-05-07 11:59 3.03196 101.17049 13360 ft 391 kts 294°
2026-05-07 12:00 3.04257 101.14520 13800 ft 394 kts 294°
2026-05-07 12:00 3.05320 101.11987 14207 ft 398 kts 294°
2026-05-07 12:00 3.06397 101.09420 14647 ft 401 kts 294°
2026-05-07 12:00 3.07482 101.06833 15065 ft 404 kts 294°
2026-05-07 12:01 3.08572 101.04235 15479 ft 407 kts 294°
2026-05-07 12:01 3.09658 101.01644 15898 ft 410 kts 294°
2026-05-07 12:01 3.10771 100.98991 16314 ft 413 kts 294°
2026-05-07 12:01 3.11886 100.96332 16713 ft 416 kts 294°
2026-05-07 12:02 3.13014 100.93642 17100 ft 419 kts 294°
2026-05-07 12:02 3.14146 100.90941 17494 ft 422 kts 294°
2026-05-07 12:02 3.15285 100.88225 17861 ft 425 kts 294°
2026-05-07 12:02 3.16432 100.85489 18211 ft 428 kts 294°
2026-05-07 12:03 3.17593 100.82718 18544 ft 431 kts 294°
2026-05-07 12:03 3.18750 100.79956 18886 ft 432 kts 294°
2026-05-07 12:03 3.19916 100.77174 19216 ft 434 kts 294°
2026-05-07 12:03 3.21070 100.74421 19530 ft 436 kts 294°
2026-05-07 12:04 3.22246 100.71614 19848 ft 438 kts 294°
2026-05-07 12:04 3.23429 100.68788 20170 ft 440 kts 294°
2026-05-07 12:04 3.24612 100.65964 20491 ft 442 kts 294°
2026-05-07 12:04 3.25804 100.63120 20785 ft 444 kts 294°
2026-05-07 12:05 3.26999 100.60265 21078 ft 446 kts 294°
2026-05-07 12:05 3.28200 100.57398 21363 ft 448 kts 294°
2026-05-07 12:05 3.29409 100.54512 21635 ft 450 kts 294°
2026-05-07 12:05 3.30623 100.51611 21901 ft 453 kts 294°
2026-05-07 12:06 3.31842 100.48699 22167 ft 454 kts 294°
2026-05-07 12:06 3.33064 100.45780 22436 ft 456 kts 294°
2026-05-07 12:06 3.34294 100.42841 22703 ft 458 kts 294°
2026-05-07 12:06 3.35529 100.39890 22994 ft 459 kts 294°
2026-05-07 12:07 3.36765 100.36935 23247 ft 461 kts 294°
2026-05-07 12:07 3.38003 100.33975 23467 ft 463 kts 293°
2026-05-07 12:07 3.39247 100.31003 23682 ft 464 kts 293°
2026-05-07 12:07 3.40541 100.28047 23902 ft 464 kts 297°
2026-05-07 12:08 3.42026 100.25171 24113 ft 465 kts 299°
2026-05-07 12:08 3.43574 100.22369 24319 ft 466 kts 300°
2026-05-07 12:08 3.45178 100.19533 24518 ft 467 kts 300°
2026-05-07 12:08 3.46784 100.16697 24690 ft 469 kts 300°
2026-05-07 12:09 3.48390 100.13840 24883 ft 471 kts 300°
2026-05-07 12:09 3.49988 100.10973 25070 ft 472 kts 300°
2026-05-07 12:09 3.51577 100.08097 25283 ft 473 kts 300°
2026-05-07 12:09 3.53167 100.05206 25477 ft 474 kts 300°
2026-05-07 12:10 3.54755 100.02308 25666 ft 475 kts 299°
2026-05-07 12:10 3.56345 99.99404 25848 ft 476 kts 299°
2026-05-07 12:10 3.57934 99.96500 26022 ft 477 kts 299°
2026-05-07 12:10 3.59530 99.93584 26213 ft 478 kts 299°
2026-05-07 12:11 3.61112 99.90695 26385 ft 479 kts 299°
2026-05-07 12:11 3.62714 99.87769 26564 ft 480 kts 299°
2026-05-07 12:11 3.64324 99.84829 26738 ft 481 kts 299°
2026-05-07 12:11 3.65936 99.81884 26901 ft 482 kts 299°
2026-05-07 12:12 3.67552 99.78933 27018 ft 484 kts 299°
2026-05-07 12:12 3.69171 99.75978 27170 ft 485 kts 299°
2026-05-07 12:12 3.70795 99.73011 27341 ft 486 kts 299°
2026-05-07 12:12 3.72420 99.70042 27511 ft 487 kts 299°
2026-05-07 12:13 3.74052 99.67061 27664 ft 488 kts 299°
2026-05-07 12:13 3.75682 99.64082 27819 ft 489 kts 299°
2026-05-07 12:13 3.77318 99.61093 27964 ft 490 kts 299°
2026-05-07 12:13 3.78959 99.58095 28105 ft 491 kts 299°
2026-05-07 12:14 3.80601 99.55093 28243 ft 492 kts 299°
2026-05-07 12:14 3.82228 99.52119 28369 ft 493 kts 299°
2026-05-07 12:14 3.83877 99.49105 28511 ft 494 kts 299°
2026-05-07 12:14 3.85532 99.46080 28648 ft 495 kts 299°
2026-05-07 12:15 3.87190 99.43049 28748 ft 496 kts 299°
2026-05-07 12:15 3.88858 99.39999 28857 ft 498 kts 299°
2026-05-07 12:15 3.90525 99.36949 28987 ft 499 kts 299°
2026-05-07 12:15 3.92171 99.33939 29126 ft 499 kts 299°
2026-05-07 12:16 3.93840 99.30887 29342 ft 498 kts 299°
2026-05-07 12:16 3.95500 99.27849 29561 ft 497 kts 299°
2026-05-07 12:16 3.97155 99.24820 29766 ft 496 kts 299°
2026-05-07 12:16 3.98816 99.21782 29930 ft 496 kts 299°
2026-05-07 12:17 4.00473 99.18749 30077 ft 496 kts 299°
2026-05-07 12:17 4.02129 99.15718 30240 ft 495 kts 299°
2026-05-07 12:17 4.03782 99.12694 30407 ft 495 kts 299°
2026-05-07 12:17 4.05436 99.09665 30569 ft 495 kts 299°
2026-05-07 12:18 4.07082 99.06652 30744 ft 494 kts 299°
2026-05-07 12:18 4.08733 99.03629 30922 ft 493 kts 299°
2026-05-07 12:18 4.10380 99.00613 31110 ft 493 kts 299°
2026-05-07 12:18 4.12023 98.97604 31292 ft 492 kts 299°
2026-05-07 12:19 4.13660 98.94605 31469 ft 491 kts 299°
2026-05-07 12:19 4.15306 98.91590 31645 ft 491 kts 299°
2026-05-07 12:19 4.16940 98.88597 31829 ft 490 kts 299°
2026-05-07 12:19 4.18576 98.85600 32015 ft 489 kts 299°
2026-05-07 12:20 4.20211 98.82605 32200 ft 489 kts 299°
2026-05-07 12:20 4.21819 98.79659 32369 ft 488 kts 299°
2026-05-07 12:20 4.23449 98.76670 32558 ft 488 kts 299°
2026-05-07 12:20 4.25077 98.73686 32748 ft 487 kts 299°
2026-05-07 12:21 4.26704 98.70703 32945 ft 486 kts 299°
2026-05-07 12:21 4.28325 98.67732 33134 ft 485 kts 300°
2026-05-07 12:21 4.29941 98.64768 33319 ft 485 kts 300°
2026-05-07 12:21 4.31562 98.61796 33479 ft 485 kts 300°
2026-05-07 12:22 4.32632 98.59834 33597 ft 484 kts 300°
2026-05-07 12:22 4.34772 98.55908 33808 ft 484 kts 300°
2026-05-07 12:22 4.36388 98.52945 33802 ft 485 kts 300°
2026-05-07 12:23 4.39099 98.47972 33819 ft 485 kts 300°
2026-05-07 12:23 4.42310 98.42078 33819 ft 483 kts 300°
2026-05-07 12:24 4.45525 98.36178 33819 ft 482 kts 300°
2026-05-07 12:24 4.48741 98.30273 33823 ft 481 kts 299°
2026-05-07 12:25 4.51947 98.24386 33834 ft 482 kts 299°
2026-05-07 12:25 4.55164 98.18477 33844 ft 482 kts 300°
2026-05-07 12:26 4.58382 98.12565 33840 ft 484 kts 300°
2026-05-07 12:26 4.61590 98.06670 33839 ft 485 kts 300°
2026-05-07 12:27 4.64822 98.00728 33851 ft 486 kts 299°
2026-05-07 12:27 4.68056 97.94783 33852 ft 486 kts 299°
2026-05-07 12:28 4.71295 97.88825 33855 ft 487 kts 299°
2026-05-07 12:28 4.74532 97.82870 33853 ft 486 kts 299°
2026-05-07 12:29 4.77769 97.76915 33854 ft 485 kts 299°
2026-05-07 12:29 4.80994 97.70980 33870 ft 485 kts 299°
2026-05-07 12:30 4.84220 97.65041 33859 ft 484 kts 299°
2026-05-07 12:30 4.87418 97.59152 33863 ft 483 kts 299°
2026-05-07 12:31 4.90629 97.53239 33867 ft 482 kts 299°
2026-05-07 12:31 4.93835 97.47332 33870 ft 482 kts 299°
2026-05-07 12:32 4.97034 97.41436 33864 ft 481 kts 299°
2026-05-07 12:32 5.00231 97.35543 33856 ft 480 kts 299°
2026-05-07 12:33 5.05017 97.26719 33864 ft 479 kts 299°
2026-05-07 12:33 5.08181 97.20882 33866 ft 479 kts 299°
2026-05-07 12:34 5.11364 97.15011 33867 ft 479 kts 299°
2026-05-07 12:34 5.14552 97.09127 33857 ft 479 kts 299°
2026-05-07 12:35 5.17743 97.03236 33858 ft 480 kts 299°
2026-05-07 12:35 5.20931 96.97351 33865 ft 480 kts 299°
2026-05-07 12:36 5.24119 96.91463 33866 ft 481 kts 299°
2026-05-07 12:36 5.27313 96.85560 33866 ft 481 kts 299°
2026-05-07 12:37 5.30511 96.79650 33842 ft 482 kts 299°
2026-05-07 12:37 5.33691 96.73773 33851 ft 482 kts 299°
2026-05-07 12:38 5.36887 96.67862 33851 ft 482 kts 299°
2026-05-07 12:38 5.40085 96.61948 33852 ft 482 kts 299°
2026-05-07 12:39 5.43284 96.56030 33851 ft 482 kts 299°
2026-05-07 12:39 5.46486 96.50105 33843 ft 482 kts 299°
2026-05-07 12:40 5.49685 96.44182 33848 ft 482 kts 299°
2026-05-07 12:40 5.52885 96.38257 33840 ft 482 kts 299°
2026-05-07 12:41 5.56060 96.32376 33842 ft 482 kts 299°
2026-05-07 12:41 5.59253 96.26460 33841 ft 482 kts 299°
2026-05-07 12:42 5.62446 96.20542 33838 ft 481 kts 299°
2026-05-07 12:42 5.65631 96.14637 33838 ft 481 kts 299°
2026-05-07 12:43 5.68818 96.08728 33831 ft 481 kts 299°
2026-05-07 12:43 5.72005 96.02815 33841 ft 481 kts 300°
2026-05-07 12:44 5.75194 95.96899 33839 ft 482 kts 300°
2026-05-07 12:44 5.78386 95.90974 33825 ft 482 kts 300°
2026-05-07 12:45 5.81579 95.85045 33826 ft 483 kts 300°
2026-05-07 12:45 5.84756 95.79144 33825 ft 483 kts 300°
2026-05-07 12:46 5.87960 95.73191 33822 ft 484 kts 300°
2026-05-07 12:46 5.91163 95.67238 33836 ft 484 kts 299°
2026-05-07 12:47 5.94371 95.61274 33828 ft 484 kts 299°
2026-05-07 12:47 5.97568 95.55327 33830 ft 483 kts 299°
2026-05-07 12:48 6.00745 95.49427 33829 ft 483 kts 300°
2026-05-07 12:48 6.04010 95.43513 33829 ft 482 kts 300°
2026-05-07 12:49 6.07276 95.37642 33829 ft 481 kts 300°
2026-05-07 12:49 6.10534 95.31761 33836 ft 481 kts 300°
2026-05-07 12:50 6.13782 95.25885 33839 ft 481 kts 300°
2026-05-07 12:50 6.17013 95.20034 33829 ft 481 kts 300°
2026-05-07 12:51 6.20268 95.14139 33841 ft 482 kts 300°
2026-05-07 12:51 6.23524 95.08241 33831 ft 482 kts 300°
2026-05-07 12:52 6.26791 95.02348 33845 ft 483 kts 300°
2026-05-07 12:52 6.30069 94.96450 33835 ft 484 kts 300°
2026-05-07 12:53 6.33346 94.90548 33843 ft 484 kts 300°
2026-05-07 12:53 6.36629 94.84628 33840 ft 484 kts 300°
2026-05-07 12:54 6.39890 94.78746 33838 ft 484 kts 300°
2026-05-07 12:54 6.43172 94.72824 33833 ft 485 kts 300°
2026-05-07 12:55 6.46449 94.66908 33850 ft 485 kts 300°
2026-05-07 12:55 6.49737 94.60972 33833 ft 485 kts 300°
2026-05-07 12:56 6.53015 94.55052 33836 ft 485 kts 299°
2026-05-07 12:56 6.56291 94.49130 33843 ft 484 kts 299°
2026-05-07 12:57 6.59540 94.43259 33841 ft 485 kts 299°
2026-05-07 12:57 6.62552 94.37196 33847 ft 485 kts 295°
2026-05-07 12:58 6.65290 94.30996 33842 ft 485 kts 294°
2026-05-07 12:58 6.67998 94.24826 33840 ft 485 kts 294°
2026-05-07 12:59 6.70753 94.18626 33838 ft 485 kts 294°
2026-05-07 12:59 6.73527 94.12434 33839 ft 485 kts 294°
2026-05-07 13:00 6.76305 94.06239 33840 ft 486 kts 294°
2026-05-07 13:00 6.79085 94.00037 33843 ft 486 kts 294°
2026-05-07 13:01 6.81845 93.93871 33840 ft 486 kts 294°
2026-05-07 13:01 6.84623 93.87664 33844 ft 486 kts 295°
2026-05-07 13:02 6.87401 93.81454 33835 ft 486 kts 295°
2026-05-07 13:02 6.90173 93.75253 33830 ft 486 kts 295°
2026-05-07 13:03 6.92943 93.69056 33840 ft 485 kts 295°
2026-05-07 13:03 6.95714 93.62856 33838 ft 485 kts 295°
2026-05-07 13:04 6.98478 93.56665 33838 ft 485 kts 295°
2026-05-07 13:04 7.01245 93.50468 33835 ft 484 kts 295°
2026-05-07 13:05 7.03989 93.44319 33836 ft 484 kts 295°
2026-05-07 13:05 7.06748 93.38132 33836 ft 484 kts 295°
2026-05-07 13:06 7.09510 93.31938 33836 ft 484 kts 295°
2026-05-07 13:06 7.12275 93.25735 33836 ft 485 kts 295°
2026-05-07 13:07 7.15038 93.19532 33833 ft 485 kts 295°
2026-05-07 13:07 7.17338 93.14368 33834 ft 485 kts 295°
2026-05-07 13:08 7.20548 93.07156 33833 ft 485 kts 295°
2026-05-07 13:08 7.23311 93.00946 33835 ft 486 kts 295°
2026-05-07 13:09 7.26062 92.94760 33838 ft 486 kts 295°
2026-05-07 13:09 7.28379 92.89548 33833 ft 486 kts 295°
2026-05-07 13:10 7.31124 92.83370 33832 ft 487 kts 295°
2026-05-07 13:10 7.33890 92.77143 33836 ft 487 kts 295°
2026-05-07 13:11 7.36653 92.70920 33832 ft 487 kts 295°
2026-05-07 13:11 7.39418 92.64689 33832 ft 487 kts 295°
2026-05-07 13:12 7.42185 92.58453 33836 ft 487 kts 295°
2026-05-07 13:12 7.44952 92.52213 33832 ft 487 kts 295°
2026-05-07 13:13 7.47721 92.45964 33835 ft 487 kts 295°
2026-05-07 13:13 7.50489 92.39718 33833 ft 488 kts 295°
2026-05-07 13:14 7.53234 92.33519 33835 ft 487 kts 295°
2026-05-07 13:14 7.55997 92.27275 33838 ft 487 kts 295°
2026-05-07 13:15 7.58755 92.21042 33835 ft 487 kts 295°
2026-05-07 13:15 7.61511 92.14810 33821 ft 486 kts 295°
2026-05-07 13:16 7.64242 92.08631 33833 ft 485 kts 295°
2026-05-07 13:16 7.66989 92.02414 33833 ft 485 kts 295°
2026-05-07 13:17 7.69734 91.96197 33834 ft 485 kts 295°
2026-05-07 13:17 7.72481 91.89973 33832 ft 486 kts 295°
2026-05-07 13:18 7.75226 91.83753 33834 ft 486 kts 295°
2026-05-07 13:18 7.77976 91.77514 33834 ft 486 kts 295°
2026-05-07 13:19 7.80705 91.71323 33834 ft 486 kts 295°
2026-05-07 13:19 7.83471 91.65081 33833 ft 487 kts 296°
2026-05-07 13:20 7.86304 91.58887 33833 ft 487 kts 296°
2026-05-07 13:20 7.89159 91.52686 33836 ft 487 kts 296°
2026-05-07 13:21 7.92006 91.46479 33831 ft 488 kts 296°
2026-05-07 13:21 7.94852 91.40252 33837 ft 489 kts 296°
2026-05-07 13:22 7.97696 91.34020 33834 ft 489 kts 296°
2026-05-07 13:22 8.00527 91.27813 33834 ft 490 kts 296°
2026-05-07 13:23 8.03379 91.21559 33834 ft 491 kts 296°
2026-05-07 13:23 8.06233 91.15299 33833 ft 491 kts 296°
2026-05-07 13:24 8.09089 91.09029 33831 ft 491 kts 296°
2026-05-07 13:24 8.11942 91.02765 33833 ft 491 kts 296°
2026-05-07 13:25 8.14775 90.96542 33833 ft 491 kts 296°
2026-05-07 13:25 8.17624 90.90278 33829 ft 490 kts 296°
2026-05-07 13:26 8.20472 90.84016 33830 ft 490 kts 295°
2026-05-07 13:26 8.23316 90.77759 33829 ft 489 kts 295°
2026-05-07 13:27 8.26148 90.71526 33832 ft 489 kts 295°
2026-05-07 13:27 8.28984 90.65280 33828 ft 488 kts 295°
2026-05-07 13:28 8.31798 90.59080 33829 ft 488 kts 295°
2026-05-07 13:28 8.34623 90.52854 33830 ft 487 kts 296°
2026-05-07 13:29 8.37441 90.46638 33835 ft 486 kts 296°
2026-05-07 13:29 8.40255 90.40429 33832 ft 486 kts 296°
2026-05-07 13:30 8.43064 90.34229 33825 ft 485 kts 296°
2026-05-07 13:30 8.45872 90.28027 33834 ft 485 kts 296°
2026-05-07 13:31 8.48661 90.21862 33831 ft 485 kts 296°
2026-05-07 13:31 8.51473 90.15646 33834 ft 486 kts 296°
2026-05-07 13:32 8.54285 90.09427 33832 ft 486 kts 295°
2026-05-07 13:32 8.57093 90.03212 33829 ft 487 kts 295°
2026-05-07 13:33 8.59887 89.97026 33830 ft 487 kts 295°
2026-05-07 13:33 8.62703 89.90788 33830 ft 488 kts 295°
2026-05-07 13:34 8.66932 89.81413 33832 ft 488 kts 295°
2026-05-07 13:35 8.69747 89.75168 33832 ft 488 kts 295°
2026-05-07 13:35 8.72541 89.68968 33828 ft 488 kts 295°
2026-05-07 13:36 8.75356 89.62718 33831 ft 487 kts 295°
2026-05-07 13:36 8.78160 89.56490 33830 ft 486 kts 295°
2026-05-07 13:37 8.80952 89.50282 33831 ft 485 kts 295°
2026-05-07 13:37 8.83742 89.44078 33833 ft 484 kts 295°
2026-05-07 13:38 8.86525 89.37887 33829 ft 483 kts 295°
2026-05-07 13:38 8.89281 89.31751 33831 ft 482 kts 295°
2026-05-07 13:39 8.92056 89.25572 33831 ft 482 kts 295°
2026-05-07 13:39 8.94831 89.19389 33832 ft 482 kts 295°
2026-05-07 13:40 8.97600 89.13214 33826 ft 482 kts 295°
2026-05-07 13:40 9.00379 89.07015 33831 ft 482 kts 295°
2026-05-07 13:41 9.03131 89.00872 33834 ft 483 kts 295°
2026-05-07 13:41 9.05905 88.94678 33832 ft 483 kts 295°
2026-05-07 13:42 9.08681 88.88476 33832 ft 483 kts 295°
2026-05-07 13:42 9.11457 88.82269 33831 ft 484 kts 295°
2026-05-07 13:43 9.14236 88.76054 33830 ft 484 kts 295°
2026-05-07 13:43 9.16993 88.69885 33830 ft 484 kts 295°
2026-05-07 13:44 9.19771 88.63664 33831 ft 484 kts 295°
2026-05-07 13:44 9.22544 88.57452 33831 ft 484 kts 295°
2026-05-07 13:45 9.25319 88.51231 33831 ft 484 kts 295°
2026-05-07 13:45 9.28092 88.45013 33833 ft 484 kts 295°
2026-05-07 13:46 9.30867 88.38787 33827 ft 485 kts 295°
2026-05-07 13:46 9.33620 88.32606 33827 ft 485 kts 295°
2026-05-07 13:47 9.36394 88.26375 33825 ft 484 kts 295°
2026-05-07 13:47 9.39163 88.20150 33825 ft 484 kts 295°
2026-05-07 13:48 9.41927 88.13933 33827 ft 484 kts 295°
2026-05-07 13:48 9.44695 88.07707 33828 ft 484 kts 295°
2026-05-07 13:49 9.47455 88.01492 33825 ft 484 kts 294°
2026-05-07 13:49 9.50199 87.95310 33829 ft 484 kts 294°
2026-05-07 13:50 9.52957 87.89094 33823 ft 484 kts 294°
2026-05-07 13:50 9.55714 87.82876 33829 ft 484 kts 294°
2026-05-07 13:51 9.58469 87.76659 33826 ft 483 kts 294°
2026-05-07 13:51 9.61225 87.70439 33831 ft 483 kts 294°
2026-05-07 13:52 9.63982 87.64209 33828 ft 484 kts 294°
2026-05-07 13:52 9.66734 87.57989 33827 ft 484 kts 294°
2026-05-07 13:53 9.69487 87.51763 33829 ft 484 kts 294°
2026-05-07 13:53 9.72223 87.45571 33830 ft 484 kts 294°
2026-05-07 13:54 9.74976 87.39335 33828 ft 484 kts 294°
2026-05-07 13:54 9.77734 87.33111 33828 ft 484 kts 295°
2026-05-07 13:55 9.80568 87.26923 33829 ft 484 kts 295°
2026-05-07 13:55 9.83423 87.20742 33823 ft 483 kts 295°
2026-05-07 13:56 9.85784 87.15615 33826 ft 483 kts 295°
2026-05-07 13:56 9.88613 87.09445 33822 ft 482 kts 295°
2026-05-07 13:57 9.91912 87.02237 33826 ft 481 kts 295°
2026-05-07 13:57 9.94713 86.96114 33828 ft 481 kts 295°
2026-05-07 13:58 9.97069 86.90960 33824 ft 481 kts 295°
2026-05-07 13:58 10.00339 86.83803 33828 ft 481 kts 295°
2026-05-07 13:59 10.02677 86.78683 33829 ft 481 kts 295°
2026-05-07 13:59 10.05490 86.72520 33828 ft 481 kts 295°
2026-05-07 14:00 10.08306 86.66348 33828 ft 482 kts 295°
2026-05-07 14:00 10.11119 86.60178 33830 ft 482 kts 295°
2026-05-07 14:01 10.13940 86.53987 33833 ft 482 kts 295°
2026-05-07 14:01 10.16755 86.47806 33828 ft 482 kts 295°
2026-05-07 14:02 10.19571 86.41619 33820 ft 482 kts 295°
2026-05-07 14:02 10.22369 86.35466 33825 ft 482 kts 295°
2026-05-07 14:03 10.25177 86.29291 33825 ft 482 kts 295°
2026-05-07 14:03 10.27982 86.23115 33825 ft 481 kts 295°
2026-05-07 14:04 10.30786 86.16941 33823 ft 481 kts 295°
2026-05-07 14:04 10.33588 86.10766 33825 ft 481 kts 295°
2026-05-07 14:05 10.36391 86.04585 33823 ft 481 kts 295°
2026-05-07 14:05 10.39190 85.98410 33826 ft 481 kts 295°
2026-05-07 14:06 10.41988 85.92233 33831 ft 481 kts 295°
2026-05-07 14:06 10.44769 85.86089 33827 ft 481 kts 295°
2026-05-07 14:07 10.47565 85.79907 33827 ft 481 kts 295°
2026-05-07 14:07 10.50363 85.73721 33828 ft 481 kts 295°
2026-05-07 14:08 10.53157 85.67537 33822 ft 482 kts 295°
2026-05-07 14:08 10.55954 85.61343 33827 ft 482 kts 295°
2026-05-07 14:09 10.58747 85.55155 33823 ft 482 kts 295°
2026-05-07 14:09 10.61542 85.48959 33824 ft 482 kts 295°
2026-05-07 14:10 10.64334 85.42764 33823 ft 482 kts 295°
2026-05-07 14:10 10.67128 85.36562 33823 ft 482 kts 295°
2026-05-07 14:11 10.69899 85.30407 33830 ft 482 kts 294°
2026-05-07 14:11 10.72688 85.24208 33830 ft 482 kts 294°
2026-05-07 14:12 10.75483 85.17992 33827 ft 482 kts 294°
2026-05-07 14:12 10.78270 85.11789 33826 ft 482 kts 294°
2026-05-07 14:13 10.81061 85.05574 33825 ft 482 kts 294°
2026-05-07 14:13 10.83831 84.99403 33824 ft 482 kts 295°
2026-05-07 14:14 10.86616 84.93191 33827 ft 483 kts 294°
2026-05-07 14:14 10.89403 84.86975 33824 ft 483 kts 294°
2026-05-07 14:15 10.92193 84.80746 33832 ft 483 kts 294°
2026-05-07 14:15 10.94977 84.74526 33826 ft 483 kts 294°
2026-05-07 14:16 10.97765 84.68295 33827 ft 483 kts 294°
2026-05-07 14:16 11.00546 84.62074 33824 ft 483 kts 295°
2026-05-07 14:17 11.03313 84.55882 33825 ft 483 kts 295°
2026-05-07 14:17 11.06095 84.49650 33823 ft 483 kts 295°
2026-05-07 14:18 11.08874 84.43422 33829 ft 483 kts 295°
2026-05-07 14:18 11.11650 84.37197 33831 ft 483 kts 295°
2026-05-07 14:19 11.14430 84.30958 33822 ft 483 kts 295°
2026-05-07 14:19 11.17203 84.24733 33825 ft 483 kts 295°
2026-05-07 14:20 11.19959 84.18539 33822 ft 483 kts 295°
2026-05-07 14:20 11.22732 84.12305 33826 ft 483 kts 295°
2026-05-07 14:21 11.25500 84.06077 33823 ft 483 kts 295°
2026-05-07 14:21 11.28265 83.99852 33826 ft 482 kts 295°
2026-05-07 14:22 11.31024 83.93636 33826 ft 481 kts 294°
2026-05-07 14:22 11.33782 83.87419 33829 ft 480 kts 295°
2026-05-07 14:23 11.36527 83.81225 33824 ft 479 kts 295°
2026-05-07 14:23 11.39266 83.75043 33823 ft 478 kts 295°
2026-05-07 14:24 11.41986 83.68898 33826 ft 478 kts 295°
2026-05-07 14:24 11.44718 83.62722 33821 ft 477 kts 295°
2026-05-07 14:25 11.47445 83.56554 33824 ft 477 kts 295°
2026-05-07 14:25 11.50171 83.50385 33824 ft 477 kts 294°
2026-05-07 14:26 11.52898 83.44206 33825 ft 477 kts 294°
2026-05-07 14:26 11.55620 83.38036 33826 ft 478 kts 294°
2026-05-07 14:27 11.58350 83.31844 33826 ft 478 kts 294°
2026-05-07 14:27 11.61115 83.25666 33824 ft 479 kts 295°
2026-05-07 14:28 11.63915 83.19493 33829 ft 479 kts 295°
2026-05-07 14:28 11.66697 83.13352 33827 ft 480 kts 294°
2026-05-07 14:29 11.69492 83.07161 33829 ft 480 kts 294°
2026-05-07 14:29 11.72285 83.00962 33825 ft 481 kts 294°
2026-05-07 14:30 11.75079 82.94757 33823 ft 481 kts 294°
2026-05-07 14:30 11.77873 82.88547 33826 ft 481 kts 294°
2026-05-07 14:31 11.80667 82.82334 33827 ft 481 kts 294°
2026-05-07 14:31 11.83460 82.76119 33828 ft 481 kts 294°
2026-05-07 14:32 11.86232 82.69947 33820 ft 481 kts 294°
2026-05-07 14:32 11.89015 82.63744 33821 ft 480 kts 294°
2026-05-07 14:33 11.91796 82.57543 33826 ft 479 kts 294°
2026-05-07 14:33 11.94570 82.51353 33824 ft 479 kts 294°
2026-05-07 14:34 11.97337 82.45174 33824 ft 478 kts 294°
2026-05-07 14:34 12.00084 82.39037 33824 ft 477 kts 294°
2026-05-07 14:35 12.02843 82.32868 33826 ft 476 kts 294°
2026-05-07 14:35 12.05595 82.26709 33816 ft 475 kts 294°
2026-05-07 14:36 12.08334 82.20576 33823 ft 474 kts 294°
2026-05-07 14:36 12.11065 82.14457 33820 ft 473 kts 294°
2026-05-07 14:37 12.13794 82.08339 33826 ft 472 kts 294°
2026-05-07 14:37 12.17852 81.99232 33827 ft 472 kts 294°
2026-05-07 14:38 12.20571 81.93124 33827 ft 472 kts 294°
2026-05-07 14:38 12.23290 81.87011 33828 ft 472 kts 294°
2026-05-07 14:39 12.26010 81.80895 33832 ft 473 kts 294°
2026-05-07 14:39 12.28725 81.74782 33833 ft 473 kts 294°
2026-05-07 14:40 12.31448 81.68649 33831 ft 473 kts 294°
2026-05-07 14:40 12.33707 81.63558 33828 ft 473 kts 294°
2026-05-07 14:41 12.36427 81.57423 33824 ft 472 kts 294°
2026-05-07 14:41 12.39574 81.50320 33821 ft 471 kts 294°
2026-05-07 14:42 12.42271 81.44226 33824 ft 470 kts 294°
2026-05-07 14:42 12.44965 81.38137 33824 ft 469 kts 294°
2026-05-07 14:43 12.47650 81.32064 33823 ft 468 kts 294°
2026-05-07 14:43 12.49883 81.27010 33829 ft 467 kts 294°
2026-05-07 14:44 12.52559 81.20947 33824 ft 467 kts 294°
2026-05-07 14:44 12.55226 81.14901 33822 ft 466 kts 294°
2026-05-07 14:45 12.57892 81.08854 33822 ft 466 kts 294°
2026-05-07 14:45 12.60991 81.01820 33817 ft 465 kts 294°
2026-05-07 14:46 12.63649 80.95781 33824 ft 465 kts 294°
2026-05-07 14:46 12.65876 80.90717 33823 ft 465 kts 294°
2026-05-07 14:47 12.68518 80.84708 33820 ft 466 kts 294°
2026-05-07 14:47 12.71171 80.78668 33818 ft 466 kts 294°
2026-05-07 14:48 12.73834 80.72601 33808 ft 466 kts 294°
2026-05-07 14:48 12.76492 80.66541 33810 ft 466 kts 294°
2026-05-07 14:49 12.79152 80.60474 33805 ft 466 kts 294°
2026-05-07 14:49 12.81807 80.54412 33804 ft 467 kts 294°
2026-05-07 14:50 12.84465 80.48337 33807 ft 467 kts 294°
2026-05-07 14:50 12.87106 80.42299 33803 ft 467 kts 294°
2026-05-07 14:51 12.89768 80.36207 33802 ft 468 kts 294°
2026-05-07 14:51 12.92429 80.30112 33801 ft 468 kts 294°
2026-05-07 14:52 12.95087 80.24019 33804 ft 468 kts 294°
2026-05-07 14:52 12.97745 80.17925 33805 ft 468 kts 294°
2026-05-07 14:53 12.99928 80.11644 33816 ft 467 kts 284°
2026-05-07 14:53 13.01484 80.05172 33803 ft 467 kts 283°
2026-05-07 14:54 13.03022 79.98697 33800 ft 467 kts 283°
2026-05-07 14:54 13.04595 79.92275 33823 ft 467 kts 284°
2026-05-07 14:55 13.06201 79.85812 33819 ft 467 kts 284°
2026-05-07 14:55 13.07808 79.79364 33835 ft 467 kts 284°
2026-05-07 14:56 13.09414 79.72905 33827 ft 467 kts 284°
2026-05-07 14:56 13.11014 79.66454 33817 ft 467 kts 284°
2026-05-07 14:57 13.12618 79.59983 33808 ft 468 kts 284°
2026-05-07 14:57 13.14222 79.53503 33825 ft 468 kts 284°
2026-05-07 14:58 13.15814 79.47062 33829 ft 469 kts 284°
2026-05-07 14:58 13.17415 79.40581 33840 ft 469 kts 283°
2026-05-07 14:59 13.19021 79.34067 33838 ft 470 kts 283°
2026-05-07 14:59 13.20621 79.27575 33849 ft 470 kts 283°
2026-05-07 15:00 13.22225 79.21055 33841 ft 471 kts 283°
2026-05-07 15:00 13.23825 79.14546 33854 ft 471 kts 283°
2026-05-07 15:01 13.25426 79.08026 33863 ft 471 kts 283°
2026-05-07 15:01 13.27016 79.01538 33871 ft 471 kts 283°
2026-05-07 15:02 13.28614 78.95014 33887 ft 471 kts 283°
2026-05-07 15:02 13.29301 78.88366 33882 ft 468 kts 265°
2026-05-07 15:03 13.28813 78.81712 33897 ft 468 kts 264°
2026-05-07 15:03 13.28293 78.75053 33903 ft 467 kts 264°
2026-05-07 15:04 13.27814 78.68393 33911 ft 467 kts 265°
2026-05-07 15:04 13.27358 78.61734 33909 ft 468 kts 265°
2026-05-07 15:05 13.26905 78.55070 33912 ft 468 kts 265°
2026-05-07 15:05 13.26450 78.48408 33913 ft 468 kts 264°
2026-05-07 15:06 13.25990 78.41736 33912 ft 468 kts 265°
2026-05-07 15:06 13.25532 78.35111 33922 ft 468 kts 264°
2026-05-07 15:07 13.25068 78.28434 33919 ft 469 kts 265°
2026-05-07 15:07 13.24602 78.21756 33928 ft 469 kts 265°
2026-05-07 15:08 13.24136 78.15087 33929 ft 469 kts 264°
2026-05-07 15:08 13.23666 78.08401 33935 ft 469 kts 265°
2026-05-07 15:09 13.23199 78.01774 33933 ft 469 kts 265°
2026-05-07 15:09 13.22726 77.95092 33945 ft 469 kts 265°
2026-05-07 15:10 13.22252 77.88411 33942 ft 469 kts 265°
2026-05-07 15:10 13.21775 77.81727 33941 ft 469 kts 265°
2026-05-07 15:11 13.21297 77.75037 33967 ft 469 kts 265°
2026-05-07 15:11 13.20816 77.68358 33967 ft 469 kts 264°
2026-05-07 15:12 13.20286 77.61669 33967 ft 469 kts 264°
2026-05-07 15:12 13.19736 77.54993 33958 ft 470 kts 264°
2026-05-07 15:13 13.19192 77.48359 33956 ft 470 kts 264°
2026-05-07 15:13 13.18647 77.41673 33943 ft 470 kts 264°
2026-05-07 15:14 13.18102 77.34977 33929 ft 470 kts 264°
2026-05-07 15:14 13.17554 77.28278 33934 ft 471 kts 264°
2026-05-07 15:15 13.17005 77.21583 33922 ft 471 kts 264°
2026-05-07 15:15 13.16453 77.14885 33921 ft 471 kts 264°
2026-05-07 15:16 13.15902 77.08215 33915 ft 472 kts 264°
2026-05-07 15:16 13.15343 77.01466 33208 ft 480 kts 264°
2026-05-07 15:17 13.15059 76.98057 32578 ft 478 kts 264°
2026-05-07 15:17 13.14777 76.94660 31886 ft 478 kts 264°
2026-05-07 15:17 13.14494 76.91266 31406 ft 474 kts 264°
2026-05-07 15:17 13.14214 76.87905 30888 ft 471 kts 264°
2026-05-07 15:18 13.13936 76.84577 30398 ft 468 kts 264°
2026-05-07 15:18 13.13658 76.81251 29876 ft 466 kts 264°
2026-05-07 15:18 13.13381 76.77954 29315 ft 462 kts 264°
2026-05-07 15:18 13.13106 76.74681 28788 ft 458 kts 264°
2026-05-07 15:19 13.12833 76.71436 28274 ft 454 kts 264°
2026-05-07 15:19 13.12566 76.68266 27772 ft 450 kts 264°
2026-05-07 15:19 13.12297 76.65078 27293 ft 447 kts 265°
2026-05-07 15:19 13.12030 76.61919 26809 ft 443 kts 265°
2026-05-07 15:20 13.11764 76.58776 26324 ft 440 kts 265°
2026-05-07 15:20 13.11500 76.55658 25835 ft 438 kts 265°
2026-05-07 15:20 13.11236 76.52546 25336 ft 436 kts 265°
2026-05-07 15:20 13.10973 76.49458 24860 ft 433 kts 265°
2026-05-07 15:21 13.10712 76.46391 24363 ft 432 kts 265°
2026-05-07 15:21 13.10450 76.43314 23876 ft 431 kts 265°
2026-05-07 15:21 13.10189 76.40254 23367 ft 429 kts 265°
2026-05-07 15:21 13.09929 76.37213 22820 ft 427 kts 265°
2026-05-07 15:22 13.09672 76.34202 22342 ft 423 kts 265°
2026-05-07 15:22 13.09415 76.31207 21861 ft 419 kts 265°
2026-05-07 15:22 13.09160 76.28238 21389 ft 416 kts 265°
2026-05-07 15:22 13.08908 76.25303 20930 ft 412 kts 265°
2026-05-07 15:23 13.08656 76.22379 20469 ft 408 kts 266°
2026-05-07 15:23 13.08407 76.19489 20020 ft 405 kts 266°
2026-05-07 15:23 13.08164 76.16662 19557 ft 402 kts 266°
2026-05-07 15:23 13.07918 76.13815 19100 ft 399 kts 265°
2026-05-07 15:24 13.07674 76.10992 18652 ft 396 kts 265°
2026-05-07 15:24 13.07432 76.08186 18188 ft 393 kts 265°
2026-05-07 15:24 13.07190 76.05396 17692 ft 390 kts 265°
2026-05-07 15:24 13.06943 76.02640 17254 ft 385 kts 265°
2026-05-07 15:25 13.06675 75.99923 16833 ft 381 kts 264°
2026-05-07 15:25 13.06399 75.97231 16397 ft 378 kts 264°
2026-05-07 15:25 13.06122 75.94558 15962 ft 375 kts 264°
2026-05-07 15:25 13.05849 75.91909 15526 ft 373 kts 264°
2026-05-07 15:26 13.05578 75.89264 15074 ft 372 kts 264°
2026-05-07 15:26 13.05309 75.86631 14647 ft 371 kts 264°
2026-05-07 15:26 13.05041 75.84004 14196 ft 370 kts 264°
2026-05-07 15:26 13.04774 75.81382 13757 ft 370 kts 264°
2026-05-07 15:27 13.04507 75.78759 13272 ft 369 kts 264°
2026-05-07 15:27 13.04242 75.76154 12826 ft 366 kts 264°
2026-05-07 15:27 13.03977 75.73558 12390 ft 364 kts 264°
2026-05-07 15:27 13.03717 75.71019 11969 ft 362 kts 264°
2026-05-07 15:28 13.03456 75.68458 11533 ft 361 kts 264°
2026-05-07 15:28 13.03194 75.65901 11101 ft 359 kts 264°
2026-05-07 15:28 13.02934 75.63356 10729 ft 356 kts 264°
2026-05-07 15:28 13.02678 75.60861 10541 ft 347 kts 264°
2026-05-07 15:29 13.02428 75.58428 10389 ft 338 kts 264°
2026-05-07 15:29 13.02185 75.56062 10242 ft 330 kts 264°
2026-05-07 15:29 13.01948 75.53754 10068 ft 320 kts 264°
2026-05-07 15:29 13.01718 75.51523 9973 ft 309 kts 264°
2026-05-07 15:30 13.01494 75.49346 9698 ft 306 kts 264°
2026-05-07 15:30 13.01271 75.47180 9375 ft 304 kts 264°
2026-05-07 15:30 13.01050 75.45030 9083 ft 303 kts 264°
2026-05-07 15:30 13.00829 75.42884 8778 ft 302 kts 264°
2026-05-07 15:31 13.00682 75.41462 8613 ft 300 kts 264°
2026-05-07 15:31 13.00393 75.38667 8277 ft 297 kts 264°
2026-05-07 15:31 13.00176 75.36565 7992 ft 295 kts 264°
2026-05-07 15:31 12.99960 75.34481 7683 ft 294 kts 265°
2026-05-07 15:32 12.99744 75.32398 7394 ft 293 kts 265°
2026-05-07 15:32 12.99601 75.31023 7201 ft 292 kts 265°
2026-05-07 15:32 12.99386 75.28945 6844 ft 294 kts 265°
2026-05-07 15:32 12.99167 75.26835 6551 ft 293 kts 265°
2026-05-07 15:33 12.98954 75.24792 6265 ft 292 kts 265°
2026-05-07 15:33 12.98737 75.22700 5957 ft 291 kts 265°
2026-05-07 15:33 12.98525 75.20667 5652 ft 289 kts 265°
2026-05-07 15:33 12.98313 75.18626 5354 ft 288 kts 265°
2026-05-07 15:34 12.98101 75.16592 5069 ft 286 kts 265°
2026-05-07 15:34 12.97889 75.14566 4839 ft 282 kts 265°
2026-05-07 15:34 12.97875 75.12606 4688 ft 272 kts 287°
2026-05-07 15:34 12.98829 75.11020 4591 ft 259 kts 320°
2026-05-07 15:35 13.00328 75.10082 4485 ft 249 kts 340°
2026-05-07 15:35 13.01970 75.09600 4391 ft 241 kts 344°
2026-05-07 15:35 13.03537 75.09061 4274 ft 233 kts 336°
2026-05-07 15:35 13.04873 75.08179 4033 ft 232 kts 309°
2026-05-07 15:36 13.05409 75.06656 3819 ft 230 kts 269°
2026-05-07 15:36 13.04999 75.05080 3574 ft 232 kts 249°
2026-05-07 15:36 13.04329 75.03586 3298 ft 234 kts 246°
2026-05-07 15:36 13.03542 75.02127 2999 ft 232 kts 242°
2026-05-07 15:37 13.02701 75.00731 2707 ft 228 kts 241°
2026-05-07 15:37 13.01872 74.99359 2429 ft 223 kts 242°
2026-05-07 15:37 13.01070 74.98023 2139 ft 217 kts 242°
2026-05-07 15:37 13.00301 74.96741 1877 ft 203 kts 242°
2026-05-07 15:38 12.99589 74.95554 1662 ft 186 kts 241°
2026-05-07 15:38 12.98940 74.94472 1393 ft 170 kts 242°
2026-05-07 15:38 12.98353 74.93493 1208 ft 150 kts 243°
2026-05-07 15:38 12.97801 74.92571 1007 ft 154 kts 243°
2026-05-07 15:39 12.97252 74.91653 811 ft 149 kts 242°
2026-05-07 15:39 12.96706 74.90744 614 ft 150 kts 240°
2026-05-07 15:39 12.96162 74.89838 421 ft 150 kts 238°
2026-05-07 15:39 12.95630 74.88949 322 ft 137 kts 238°
2026-05-07 15:40 12.95277 74.88368 322 ft 79 kts 238°
2026-05-07 15:40 12.95062 74.88008 323 ft 43 kts 238°
2026-05-07 15:40 12.94979 74.87872 322 ft 17 kts 238°
2026-05-07 15:40 12.94918 74.87771 321 ft 16 kts 239°
2026-05-07 15:41 12.94881 74.87669 321 ft 16 kts 294°
2026-05-07 15:41 12.94966 74.87605 323 ft 15 kts 327°
2026-05-07 15:41 12.95025 74.87535 323 ft 13 kts 257°
2026-05-07 15:41 12.94979 74.87456 323 ft 13 kts 237°
2026-05-07 15:42 12.94939 74.87390 323 ft 5 kts 239°
2026-05-07 15:42 12.94950 74.87361 320 ft 6 kts 329°
2026-05-07 15:42 12.94974 74.87345 323 ft 2 kts 328°
2026-05-07 15:42 12.94983 74.87340 323 ft 0 kts 329°
2026-05-07 15:43 12.94984 74.87339 323 ft 1 kts 329°
2026-05-07 15:43 12.94986 74.87338 323 ft 0 kts 329°